SABADELL current weather conditions

sailwx.info

Wind from 170 at 8 knots

Air temperature 29.0° C
Dewpoint 14.0° C

Last reported at 2015-Jun-29 19:00 UTC.
Time now 2015-Jun-29 23:14 UTC

Location: N 41°31' E 002°06'.
View on Google Maps.

See reports from other nearby stations

  
Tides and Currents Weather Stations Pressure Air Temp Water Temp Dewpoint Dewpoint Depression Visibility Wind Speed Wind Dir Waves Ship Positions
date/time (UTC)wind fromknots sea level pressurealtimeterstation pressurevisibilityair tempwater tempwave heightnotes
2015-Jun-29 19:00 170 8 29.0
2015-Jun-29 18:30 170 7 31.0
2015-Jun-29 18:00 170 10 31.0
2015-Jun-29 17:30 210 8 33.0
2015-Jun-29 17:00 190 10 33.0
2015-Jun-29 16:30 210 10 33.0
2015-Jun-29 16:00 200 9 34.0
2015-Jun-29 15:30 220 9 34.0
2015-Jun-29 15:00 190 9 34.0
2015-Jun-29 14:30 210 11 34.0
2015-Jun-29 14:00 190 12 34.0
2015-Jun-29 13:30 170 11 34.0
2015-Jun-29 13:00 180 11 34.0
2015-Jun-29 12:30 160 10 34.0
2015-Jun-29 12:00 160 13 33.0
2015-Jun-29 11:30 150 6 33.0
2015-Jun-29 11:00 110 10 32.0
2015-Jun-29 10:30 120 8 32.0
2015-Jun-29 10:00 120 5 32.0
2015-Jun-29 09:30 120 5 31.0
2015-Jun-29 09:00 130 5 30.0
2015-Jun-29 08:30 150 2 29.0
2015-Jun-29 08:00 170 1 28.0
2015-Jun-29 07:30 28.0
2015-Jun-29 07:00 27.0
2015-Jun-29 06:30 26.0
2015-Jun-29 06:00 25.0
2015-Jun-28 19:00 120 5 26.0
2015-Jun-28 18:30 110 7 27.0
2015-Jun-28 18:00 100 6 28.0
2015-Jun-28 17:30 120 7 28.0
2015-Jun-28 17:00 100 8 29.0
2015-Jun-28 16:30 120 9 29.0
2015-Jun-28 16:00 130 8 30.0
2015-Jun-28 15:30 120 10 29.0
2015-Jun-28 15:00 120 11 29.0
2015-Jun-28 14:30 110 11 29.0
2015-Jun-28 14:00 120 12 30.0
2015-Jun-28 13:30 130 13 30.0
2015-Jun-28 13:00 150 10 30.0
2015-Jun-28 12:30 150 9 30.0
2015-Jun-28 12:00 160 10 30.0
2015-Jun-28 11:30 120 12 30.0
2015-Jun-28 11:00 110 9 30.0
2015-Jun-28 10:30 120 7 30.0
2015-Jun-28 10:00 120 7 29.0
2015-Jun-28 09:30 110 5 29.0
2015-Jun-28 09:00 140 3 29.0
2015-Jun-28 08:30 120 3 28.0
2015-Jun-28 08:00 130 1 28.0
2015-Jun-28 07:30 27.0
2015-Jun-28 07:00 26.0
2015-Jun-28 06:30 25.0
2015-Jun-28 06:00 23.0